[{"OBJECT_NAME":"BEIDOU-2 IGSO-1 (C06)","OBJECT_ID":"2010-036A","EPOCH":"2026-08-21T18:11:43.719360","MEAN_MOTION":1.00253816,"ECCENTRICITY":0.00581868,"INCLINATION":54.3073,"RA_OF_ASC_NODE":162.3689,"ARG_OF_PERICENTER":224.3483,"MEAN_ANOMALY":321.2966,"EPHEMERIS_TYPE":0,"CLASSIFICATION_TYPE":"U","NORAD_CAT_ID":36828,"ELEMENT_SET_NO":999,"REV_AT_EPOCH":5875,"BSTAR":0,"MEAN_MOTION_DOT":-0.00000137,"MEAN_MOTION_DDOT":0},{"OBJECT_NAME":"BEIDOU-2 G4 (C04)","OBJECT_ID":"2010-057A","EPOCH":"2026-09-12T07:32:21.605280","MEAN_MOTION":1.00270634,"ECCENTRICITY":0.000799,"INCLINATION":3.8586,"RA_OF_ASC_NODE":68.3272,"ARG_OF_PERICENTER":180.0187,"MEAN_ANOMALY":16.0579,"EPHEMERIS_TYPE":0,"CLASSIFICATION_TYPE":"U","NORAD_CAT_ID":37210,"ELEMENT_SET_NO":999,"REV_AT_EPOCH":5816,"BSTAR":0,"MEAN_MOTION_DOT":-0.00000125,"MEAN_MOTION_DDOT":0},{"OBJECT_NAME":"BEIDOU-2 IGSO-2 (C07)","OBJECT_ID":"2010-068A","EPOCH":"2026-09-10T23:47:02.683392","MEAN_MOTION":1.00254283,"ECCENTRICITY":0.00572503,"INCLINATION":47.394,"RA_OF_ASC_NODE":270.7552,"ARG_OF_PERICENTER":216.2433,"MEAN_ANOMALY":325.9173,"EPHEMERIS_TYPE":0,"CLASSIFICATION_TYPE":"U","NORAD_CAT_ID":37256,"ELEMENT_SET_NO":999,"REV_AT_EPOCH":5765,"BSTAR":0,"MEAN_MOTION_DOT":-0.00000181,"MEAN_MOTION_DDOT":0},{"OBJECT_NAME":"BEIDOU-2 IGSO-3 (C08)","OBJECT_ID":"2011-013A","EPOCH":"2026-09-11T17:17:23.769600","MEAN_MOTION":1.00292639,"ECCENTRICITY":0.0034682,"INCLINATION":62.5388,"RA_OF_ASC_NODE":39.3441,"ARG_OF_PERICENTER":183.6392,"MEAN_ANOMALY":132.993,"EPHEMERIS_TYPE":0,"CLASSIFICATION_TYPE":"U","NORAD_CAT_ID":37384,"ELEMENT_SET_NO":999,"REV_AT_EPOCH":5652,"BSTAR":0,"MEAN_MOTION_DOT":-0.00000177,"MEAN_MOTION_DDOT":0},{"OBJECT_NAME":"BEIDOU-2 IGSO-4 (C09)","OBJECT_ID":"2011-038A","EPOCH":"2026-09-10T19:39:11.817792","MEAN_MOTION":1.0026828,"ECCENTRICITY":0.01603217,"INCLINATION":54.6025,"RA_OF_ASC_NODE":164.9115,"ARG_OF_PERICENTER":231.0094,"MEAN_ANOMALY":343.093,"EPHEMERIS_TYPE":0,"CLASSIFICATION_TYPE":"U","NORAD_CAT_ID":37763,"ELEMENT_SET_NO":999,"REV_AT_EPOCH":5550,"BSTAR":0,"MEAN_MOTION_DOT":-0.00000114,"MEAN_MOTION_DDOT":0},{"OBJECT_NAME":"BEIDOU-2 IGSO-5 (C10)","OBJECT_ID":"2011-073A","EPOCH":"2026-09-10T19:05:16.843776","MEAN_MOTION":1.00279182,"ECCENTRICITY":0.01166519,"INCLINATION":47.5267,"RA_OF_ASC_NODE":270.4734,"ARG_OF_PERICENTER":224.1508,"MEAN_ANOMALY":237.27,"EPHEMERIS_TYPE":0,"CLASSIFICATION_TYPE":"U","NORAD_CAT_ID":37948,"ELEMENT_SET_NO":999,"REV_AT_EPOCH":5399,"BSTAR":0,"MEAN_MOTION_DOT":-0.0000016,"MEAN_MOTION_DDOT":0},{"OBJECT_NAME":"BEIDOU-2 G5 (C05)","OBJECT_ID":"2012-008A","EPOCH":"2026-09-12T03:55:09.217632","MEAN_MOTION":1.00267637,"ECCENTRICITY":0.00068389,"INCLINATION":3.7859,"RA_OF_ASC_NODE":69.0679,"ARG_OF_PERICENTER":239.5091,"MEAN_ANOMALY":160.1264,"EPHEMERIS_TYPE":0,"CLASSIFICATION_TYPE":"U","NORAD_CAT_ID":38091,"ELEMENT_SET_NO":999,"REV_AT_EPOCH":5324,"BSTAR":0,"MEAN_MOTION_DOT":4.4e-7,"MEAN_MOTION_DDOT":0},{"OBJECT_NAME":"BEIDOU-2 M3 (C11)","OBJECT_ID":"2012-018A","EPOCH":"2026-09-07T08:14:19.258080","MEAN_MOTION":1.86229821,"ECCENTRICITY":0.00229055,"INCLINATION":55.6835,"RA_OF_ASC_NODE":302.1014,"ARG_OF_PERICENTER":272.4999,"MEAN_ANOMALY":87.3124,"EPHEMERIS_TYPE":0,"CLASSIFICATION_TYPE":"U","NORAD_CAT_ID":38250,"ELEMENT_SET_NO":999,"REV_AT_EPOCH":9747,"BSTAR":0,"MEAN_MOTION_DOT":-2.8e-7,"MEAN_MOTION_DDOT":0},{"OBJECT_NAME":"BEIDOU-2 M4 (C12)","OBJECT_ID":"2012-018B","EPOCH":"2026-09-11T00:49:33.601152","MEAN_MOTION":1.86229392,"ECCENTRICITY":0.00142245,"INCLINATION":55.5803,"RA_OF_ASC_NODE":301.183,"ARG_OF_PERICENTER":272.3678,"MEAN_ANOMALY":87.5423,"EPHEMERIS_TYPE":0,"CLASSIFICATION_TYPE":"U","NORAD_CAT_ID":38251,"ELEMENT_SET_NO":999,"REV_AT_EPOCH":9754,"BSTAR":0,"MEAN_MOTION_DOT":-4.9e-7,"MEAN_MOTION_DDOT":0},{"OBJECT_NAME":"BEIDOU-2 M6 (C14)","OBJECT_ID":"2012-050B","EPOCH":"2026-09-11T19:37:15.397248","MEAN_MOTION":1.86230878,"ECCENTRICITY":0.00110023,"INCLINATION":56.6242,"RA_OF_ASC_NODE":60.0343,"ARG_OF_PERICENTER":4.354,"MEAN_ANOMALY":355.6744,"EPHEMERIS_TYPE":0,"CLASSIFICATION_TYPE":"U","NORAD_CAT_ID":38775,"ELEMENT_SET_NO":999,"REV_AT_EPOCH":9492,"BSTAR":0,"MEAN_MOTION_DOT":-3.8e-7,"MEAN_MOTION_DDOT":0},{"OBJECT_NAME":"BEIDOU-2 G6 (C02)","OBJECT_ID":"2012-059A","EPOCH":"2026-09-12T02:19:48.360864","MEAN_MOTION":1.00270221,"ECCENTRICITY":0.00068483,"INCLINATION":4.6364,"RA_OF_ASC_NODE":72.5336,"ARG_OF_PERICENTER":323.5617,"MEAN_ANOMALY":73.9929,"EPHEMERIS_TYPE":0,"CLASSIFICATION_TYPE":"U","NORAD_CAT_ID":38953,"ELEMENT_SET_NO":999,"REV_AT_EPOCH":5078,"BSTAR":0,"MEAN_MOTION_DOT":-0.00000188,"MEAN_MOTION_DDOT":0},{"OBJECT_NAME":"BEIDOU-3S IGSO-1S (C31)","OBJECT_ID":"2015-019A","EPOCH":"2026-09-10T17:01:05.504736","MEAN_MOTION":1.00288273,"ECCENTRICITY":0.00387109,"INCLINATION":49.0313,"RA_OF_ASC_NODE":294.4241,"ARG_OF_PERICENTER":200.3707,"MEAN_ANOMALY":205.9134,"EPHEMERIS_TYPE":0,"CLASSIFICATION_TYPE":"U","NORAD_CAT_ID":40549,"ELEMENT_SET_NO":999,"REV_AT_EPOCH":4193,"BSTAR":0,"MEAN_MOTION_DOT":-0.00000162,"MEAN_MOTION_DDOT":0},{"OBJECT_NAME":"BEIDOU-3S M2S (C58)","OBJECT_ID":"2015-037A","EPOCH":"2026-09-11T05:38:53.800224","MEAN_MOTION":1.86231926,"ECCENTRICITY":0.00116246,"INCLINATION":54.7915,"RA_OF_ASC_NODE":299.0777,"ARG_OF_PERICENTER":259.4932,"MEAN_ANOMALY":100.4462,"EPHEMERIS_TYPE":0,"CLASSIFICATION_TYPE":"U","NORAD_CAT_ID":40748,"ELEMENT_SET_NO":999,"REV_AT_EPOCH":7572,"BSTAR":0,"MEAN_MOTION_DOT":-4.9e-7,"MEAN_MOTION_DDOT":0},{"OBJECT_NAME":"BEIDOU-3S M1S (C57)","OBJECT_ID":"2015-037B","EPOCH":"2026-09-09T06:49:57.474336","MEAN_MOTION":1.86254857,"ECCENTRICITY":0.000181,"INCLINATION":54.7897,"RA_OF_ASC_NODE":299.1308,"ARG_OF_PERICENTER":48.383,"MEAN_ANOMALY":311.7068,"EPHEMERIS_TYPE":0,"CLASSIFICATION_TYPE":"U","NORAD_CAT_ID":40749,"ELEMENT_SET_NO":999,"REV_AT_EPOCH":7569,"BSTAR":0,"MEAN_MOTION_DOT":-3.4e-7,"MEAN_MOTION_DDOT":0},{"OBJECT_NAME":"BEIDOU-3S IGSO-2S (C56)","OBJECT_ID":"2015-053A","EPOCH":"2026-09-10T23:03:27.860832","MEAN_MOTION":1.00285074,"ECCENTRICITY":0.0065681,"INCLINATION":49.0947,"RA_OF_ASC_NODE":257.7528,"ARG_OF_PERICENTER":192.4722,"MEAN_ANOMALY":341.2961,"EPHEMERIS_TYPE":0,"CLASSIFICATION_TYPE":"U","NORAD_CAT_ID":40938,"ELEMENT_SET_NO":999,"REV_AT_EPOCH":4021,"BSTAR":0,"MEAN_MOTION_DOT":-0.00000124,"MEAN_MOTION_DDOT":0},{"OBJECT_NAME":"BEIDOU-2 IGSO-6 (C13)","OBJECT_ID":"2016-021A","EPOCH":"2026-09-11T20:43:38.603136","MEAN_MOTION":1.00282549,"ECCENTRICITY":0.0061604,"INCLINATION":60.3547,"RA_OF_ASC_NODE":37.1827,"ARG_OF_PERICENTER":228.2411,"MEAN_ANOMALY":132.6997,"EPHEMERIS_TYPE":0,"CLASSIFICATION_TYPE":"U","NORAD_CAT_ID":41434,"ELEMENT_SET_NO":999,"REV_AT_EPOCH":3835,"BSTAR":0,"MEAN_MOTION_DOT":-0.00000162,"MEAN_MOTION_DDOT":0},{"OBJECT_NAME":"BEIDOU-2 G7 (C03)","OBJECT_ID":"2016-037A","EPOCH":"2026-09-12T07:35:10.620096","MEAN_MOTION":1.00275942,"ECCENTRICITY":0.00051662,"INCLINATION":1.9316,"RA_OF_ASC_NODE":69.6659,"ARG_OF_PERICENTER":352.1556,"MEAN_ANOMALY":153.8063,"EPHEMERIS_TYPE":0,"CLASSIFICATION_TYPE":"U","NORAD_CAT_ID":41586,"ELEMENT_SET_NO":999,"REV_AT_EPOCH":776,"BSTAR":0,"MEAN_MOTION_DOT":-0.00000367,"MEAN_MOTION_DDOT":0},{"OBJECT_NAME":"BEIDOU-3 M1 (C19)","OBJECT_ID":"2017-069A","EPOCH":"2026-09-09T23:19:40.299744","MEAN_MOTION":1.86231101,"ECCENTRICITY":0.0007331,"INCLINATION":56.7701,"RA_OF_ASC_NODE":60.2963,"ARG_OF_PERICENTER":324.136,"MEAN_ANOMALY":35.8435,"EPHEMERIS_TYPE":0,"CLASSIFICATION_TYPE":"U","NORAD_CAT_ID":43001,"ELEMENT_SET_NO":999,"REV_AT_EPOCH":6018,"BSTAR":0,"MEAN_MOTION_DOT":-2e-7,"MEAN_MOTION_DDOT":0},{"OBJECT_NAME":"BEIDOU-3 M2 (C20)","OBJECT_ID":"2017-069B","EPOCH":"2026-09-12T01:24:37.751328","MEAN_MOTION":1.86230429,"ECCENTRICITY":0.00062789,"INCLINATION":56.7708,"RA_OF_ASC_NODE":60.2633,"ARG_OF_PERICENTER":3.969,"MEAN_ANOMALY":356.0541,"EPHEMERIS_TYPE":0,"CLASSIFICATION_TYPE":"U","NORAD_CAT_ID":43002,"ELEMENT_SET_NO":999,"REV_AT_EPOCH":6021,"BSTAR":0,"MEAN_MOTION_DOT":-3.9e-7,"MEAN_MOTION_DDOT":0},{"OBJECT_NAME":"BEIDOU-3 M7 (C27)","OBJECT_ID":"2018-003A","EPOCH":"2026-09-11T19:13:40.274112","MEAN_MOTION":1.86227896,"ECCENTRICITY":0.00032103,"INCLINATION":54.2473,"RA_OF_ASC_NODE":299.2879,"ARG_OF_PERICENTER":105.5565,"MEAN_ANOMALY":254.5469,"EPHEMERIS_TYPE":0,"CLASSIFICATION_TYPE":"U","NORAD_CAT_ID":43107,"ELEMENT_SET_NO":999,"REV_AT_EPOCH":5896,"BSTAR":0,"MEAN_MOTION_DOT":-5.5e-7,"MEAN_MOTION_DDOT":0},{"OBJECT_NAME":"BEIDOU-3 M8 (C28)","OBJECT_ID":"2018-003B","EPOCH":"2026-09-11T04:58:59.402208","MEAN_MOTION":1.86230841,"ECCENTRICITY":0.00042014,"INCLINATION":54.2406,"RA_OF_ASC_NODE":299.29,"ARG_OF_PERICENTER":261.2655,"MEAN_ANOMALY":98.7568,"EPHEMERIS_TYPE":0,"CLASSIFICATION_TYPE":"U","NORAD_CAT_ID":43108,"ELEMENT_SET_NO":999,"REV_AT_EPOCH":5896,"BSTAR":0,"MEAN_MOTION_DOT":-5.1e-7,"MEAN_MOTION_DDOT":0},{"OBJECT_NAME":"BEIDOU-3 M4 (C22)","OBJECT_ID":"2018-018A","EPOCH":"2026-09-11T15:37:39.675360","MEAN_MOTION":1.86231004,"ECCENTRICITY":0.0006048,"INCLINATION":56.7296,"RA_OF_ASC_NODE":60.3017,"ARG_OF_PERICENTER":42.6888,"MEAN_ANOMALY":317.3783,"EPHEMERIS_TYPE":0,"CLASSIFICATION_TYPE":"U","NORAD_CAT_ID":43207,"ELEMENT_SET_NO":999,"REV_AT_EPOCH":5835,"BSTAR":0,"MEAN_MOTION_DOT":-3.6e-7,"MEAN_MOTION_DDOT":0},{"OBJECT_NAME":"BEIDOU-3 M3 (C21)","OBJECT_ID":"2018-018B","EPOCH":"2026-09-11T17:13:26.128992","MEAN_MOTION":1.86230771,"ECCENTRICITY":0.00054068,"INCLINATION":56.7302,"RA_OF_ASC_NODE":60.3038,"ARG_OF_PERICENTER":347.6353,"MEAN_ANOMALY":12.3712,"EPHEMERIS_TYPE":0,"CLASSIFICATION_TYPE":"U","NORAD_CAT_ID":43208,"ELEMENT_SET_NO":999,"REV_AT_EPOCH":5835,"BSTAR":0,"MEAN_MOTION_DOT":-3.6e-7,"MEAN_MOTION_DDOT":0},{"OBJECT_NAME":"BEIDOU-3 M9 (C29)","OBJECT_ID":"2018-029A","EPOCH":"2026-09-11T09:34:48.423648","MEAN_MOTION":1.86228302,"ECCENTRICITY":0.00017167,"INCLINATION":54.113,"RA_OF_ASC_NODE":296.9256,"ARG_OF_PERICENTER":233.1525,"MEAN_ANOMALY":126.8995,"EPHEMERIS_TYPE":0,"CLASSIFICATION_TYPE":"U","NORAD_CAT_ID":43245,"ELEMENT_SET_NO":999,"REV_AT_EPOCH":5750,"BSTAR":0,"MEAN_MOTION_DOT":-4.9e-7,"MEAN_MOTION_DDOT":0}]